This demonstration page uses our WeatherBlox Daily Observations layout. Learn more.

39.29038, -76.61219

Hourly Observations for March 11, 2019

Temp ( °F °C ) Dew Point ( °F °C ) Humidity (%) Winds ( mph kmh ) Pressure ( in mb ) Visibility ( mi km ) Precip ( " mm )
12:54 am 00:54 undefined 49 9.4 43 6.1 80 80 undefined N/A 30.03 1017 N/A 0 0
1:54 am 01:54 undefined 50 10 43 6.1 77 77 undefined N/A 30.04 1017 N/A 0 0
2:54 am 02:54 undefined 50 10 41 5 71 71 undefined N/A 30.06 1018 N/A 0 0
3:54 am 03:54 undefined 53 11.7 36 2.2 52 52 undefined N/A 30.08 1019 N/A 0 0
4:54 am 04:54 undefined 51 10.6 34 1.1 52 52 undefined N/A 30.08 1019 N/A 0 0
5:54 am 05:54 undefined 50 10 31 -0.6 48 48 undefined N/A 30.09 1019 N/A 0 0
6:54 am 06:54 undefined 48 8.9 31 -0.6 52 52 undefined N/A 30.11 1020 N/A 0 0
7:54 am 07:54 undefined 48 8.9 30 -1.1 50 50 undefined N/A 30.13 1020 N/A 0 0
8:54 am 08:54 undefined 49 9.4 30 -1.1 48 48 undefined N/A 30.15 1021 N/A 0 0
9:54 am 09:54 undefined 52 11.1 27 -2.8 38 38 undefined N/A 30.19 1022 N/A 0 0
10:54 am 10:54 undefined 53 11.7 24 -4.4 32 32 undefined N/A 30.16 1021 N/A 0 0
11:54 am 11:54 undefined 54 12.2 22 -5.6 29 29 undefined N/A 30.15 1021 N/A 0 0
12:54 pm 12:54 undefined 54 12.2 21 -6.1 28 28 undefined N/A 30.15 1021 N/A 0 0
1:54 pm 13:54 undefined 56 13.3 21 -6.1 26 26 undefined N/A 30.13 1020 N/A 0 0
2:54 pm 14:54 undefined 59 15 20 -6.7 22 22 undefined N/A 30.13 1020 N/A 0 0
3:54 pm 15:54 undefined 60 15.6 19 -7.2 20 20 undefined N/A 30.09 1019 N/A 0 0
4:54 pm 16:54 undefined 61 16.1 18 -7.8 19 19 undefined N/A 30.07 1018 N/A 0 0
5:54 pm 17:54 undefined 60 15.6 17 -8.3 19 19 undefined N/A 30.04 1017 N/A 0 0
6:54 pm 18:54 undefined 60 15.6 17 -8.3 19 19 undefined N/A 30.06 1018 N/A 0 0
7:54 pm 19:54 undefined 57 13.9 19 -7.2 23 23 undefined N/A 30.1 1019 N/A 0 0
8:54 pm 20:54 undefined 55 12.8 18 -7.8 23 23 undefined N/A 30.11 1020 N/A 0 0
9:54 pm 21:54 undefined 54 12.2 18 -7.8 24 24 undefined N/A 30.11 1020 N/A 0 0
10:54 pm 22:54 undefined 52 11.1 20 -6.7 28 28 undefined N/A 30.13 1020 N/A 0 0
11:54 pm 23:54 undefined 50 10 20 -6.7 30 30 undefined N/A 30.14 1021 N/A 0 0

Powered by AerisWeather